Temp
8 8 8 8 7 7 7 6 6 6 5 6 5 5 5 5 5 5 5 5 5 4
8 8 7 7 7 6 6 6 5 5 5 5 5 5 5 5 5 5 5 4 4 4
8 8 7 7 6 6 6 5 5 5 5 5 5 4 5 5 5 5 4 4 4 4
8 8 7 7 7 6 5 5 4 4 4 4 4 4 4 4 4 4 4 4 4 4
8 7 7 7 6 6 5 5 4 4 4 4 4 4 4 4 4 4 4 3 3 2
8 7 7 7 6 6 5 5 4 4 4 3 4 3 3 3 4 4 3 3 2 2
8 7 7 7 6 5 5 5 4 4 3 3 3 3 2 3 3 3 3 3 2 2
8 8 7 6 6 5 4 4 4 3 3 3 3 2 1 2 2 2 2 2 2 2
8 7 7 6 5 5 4 4 3 3 2 2 2 2 1 1 1 1 1 1 1 1
8 7 7 6 5 4 4 3 3 3 2 2 2 1 1 0 1 1 0 0 0 0
8 8 7 6 5 4 4 3 3 2 2 2 2 1 0 0 0 1 1 0 0 -0
8 8 7 6 5 4 4 3 3 2 2 1 1 1 1 0 0 0 1 1 0 -0
8 7 6 6 5 4 3 3 2 2 1 1 1 0 0 -0 -0 0 1 0 0 -0
7 7 6 5 4 3 3 2 2 1 1 1 1 1 -0 -1 -1 -1 -1 -1 -0 -1
Height
806 805 805 805 804 804 804 802 801 799 797 796 794 792 790 788 787 785 783 782 781 779
802 803 803 803 803 801 800 800 798 797 796 794 793 792 790 788 786 785 784 782 781 780
799 800 800 800 800 800 799 798 797 795 794 793 791 790 789 787 786 784 783 782 781 780
796 796 796 795 796 797 798 797 796 794 793 792 791 789 787 785 784 783 782 781 780 779
793 793 793 793 792 792 793 793 793 793 792 791 789 788 786 785 783 782 782 781 780 778
789 790 790 790 790 789 788 789 790 790 791 790 789 787 786 785 784 782 781 781 780 779
784 785 786 787 788 787 786 785 786 787 787 788 788 787 786 784 783 782 782 780 780 779
778 780 782 783 782 782 784 783 782 783 784 785 786 785 785 785 784 782 781 780 780 779
773 775 776 777 778 779 778 779 779 779 780 782 783 783 783 783 784 783 782 779 779 778
766 768 770 772 774 773 774 774 775 776 776 778 779 779 780 781 781 781 781 779 777 777
760 760 762 765 768 771 771 769 769 771 773 774 776 776 777 779 778 778 779 778 776 775
756 756 757 757 759 763 766 766 766 766 767 771 772 774 774 775 776 776 776 776 774 772
748 747 748 751 755 758 761 763 764 765 764 765 768 770 771 772 772 773 773 773 773 771
743 743 741 741 746 751 756 758 761 762 762 763 764 765 767 769 768 770 770 769 770 769
Wind_Speed
6 4 4 5 5 5 7 9 11 11 11 12 13 13 12 9 11 10 11 12 11 10
9 7 6 6 5 5 6 7 8 9 9 10 11 12 11 10 11 10 10 10 11 11
12 11 9 6 6 7 7 6 7 8 9 9 9 10 10 10 10 10 10 12 11 13
16 14 12 9 7 6 6 7 7 8 7 7 8 9 9 8 9 9 10 11 13 14
18 17 15 12 9 7 5 5 6 7 7 7 7 7 7 8 8 8 9 9 11 12
22 21 18 14 13 9 7 5 4 4 5 6 6 6 6 6 6 6 6 7 8 9
25 23 20 17 15 12 9 6 5 4 3 3 4 5 4 4 5 4 6 5 6 7
26 23 22 20 18 14 12 9 6 5 3 3 1 5 6 2 5 4 4 5 5 8
25 24 24 23 20 17 14 11 8 6 6 4 4 5 4 3 4 4 4 4 5 5
26 26 27 25 22 20 16 12 10 10 8 8 7 6 4 2 0 4 5 5 6 7
26 28 27 26 25 22 18 16 13 12 11 11 10 9 5 3 1 4 6 5 5 6
25 27 28 28 27 24 20 18 15 13 12 13 11 11 8 6 4 5 7 5 5 7
24 29 31 31 29 24 21 17 14 13 12 13 12 11 8 8 5 7 6 6 6 5
22 28 31 31 28 24 22 16 14 13 11 13 14 12 10 9 8 7 6 5 8 6
Wind_Direction
251 254 273 291 325 331 334 335 340 342 349 350 354 355 358 358 355 1 4 4 7 10
243 252 256 273 287 294 308 317 317 335 339 349 353 350 359 358 359 6 360 9 11 9
238 242 243 257 273 290 297 308 325 335 346 352 353 349 360 1 359 10 7 8 14 15
236 237 239 237 246 268 294 308 328 336 344 346 348 352 1 14 8 16 17 20 21 22
238 236 237 239 233 243 263 290 316 331 339 345 349 354 4 10 14 20 26 22 25 25
236 237 239 235 237 238 237 256 281 302 325 334 354 354 6 8 15 22 29 24 19 17
233 237 237 235 235 237 239 239 242 255 274 311 336 310 327 10 3 11 23 25 14 356
233 236 236 230 230 229 238 240 240 236 223 245 273 297 341 330 2 357 6 15 7 356
231 230 229 228 229 227 227 229 233 220 222 229 233 277 327 334 4 337 352 0 348 339
231 229 227 229 228 224 223 223 224 224 216 213 223 239 303 332 185 320 317 328 338 334
233 228 223 222 225 226 221 219 216 217 219 217 219 238 244 298 286 290 295 303 316 305
239 235 224 218 216 223 219 218 217 215 216 225 222 231 229 247 264 284 297 297 301 309
247 235 223 221 220 222 219 219 221 221 219 225 222 213 231 230 243 283 287 291 300 303
253 240 229 219 222 214 212 211 215 221 224 230 229 219 218 228 249 259 286 290 304 298